Regional Weather Roundup
Issued by NWS

Home | Current Version | Previous Version | Graphics & Text | Print | Product List | Glossary Off
Versions: 1 2 3 4 5 6 7 8 9 10 11 12 13 14 15 16 17 18 19 20 21 22 23 24 25 26 27 28 29 30 31 32 33 34 35 36 37 38 39 40 41 42 43 44 45 46 47 48 49 50

000
ASUS43 KTOP 190508
RWRKS

WEATHER ROUNDUP FOR KANSAS
NATIONAL WEATHER SERVICE GOODLAND KS
1200 AM CDT THU APR 19 2018

NOTE:  "FAIR" INDICATES FEW OR NO CLOUDS BELOW 12,000 FEET WITH NO
SIGNIFICANT WEATHER AND/OR OBSTRUCTIONS TO VISIBILITY.

KSZ001>006-013>018-027>032-041>047-190600-
NORTHWEST KANSAS

CITY           SKY/WX    TMP DP  RH WIND       PRES   REMARKS
GOODLAND       CLEAR     37  20  50 E5        30.29R
HAYS           CLEAR     41  28  60 N6        30.30R
HILL CITY      CLEAR     32  26  78 W3        30.31R
RUSSELL        CLEAR     35  28  75 N3        30.28R
$$

KSZ061>065-074>080-084>089-190600-
SOUTHWEST KANSAS

CITY           SKY/WX    TMP DP  RH WIND       PRES   REMARKS
DODGE CITY     CLEAR     40  25  55 E7        30.29R
ELKHART        CLEAR     46  19  34 E9        30.29S
GARDEN CITY    CLEAR     41  22  46 E10       30.29R
GREAT BEND     CLEAR     40  28  62 CALM      30.30R
LIBERAL        CLEAR     39  19  44 NE6       30.29S
PRATT          CLEAR     40  26  59 N3        30.29R
$$

KSZ066>073-081>083-090>101-190600-
SOUTHEAST KANSAS

CITY           SKY/WX    TMP DP  RH WIND       PRES   REMARKS
CHANUTE        CLEAR     42  29  59 N12       30.26R
COFFEYVILLE    CLEAR     43  30  60 N8        30.25R
HUTCHINSON     CLEAR     40  29  64 N6        30.28R
MEDICINE LODGE   N/A     44  29  55 CALM      30.28R
NEWTON         CLEAR     35  26  69 N8        30.28R
PARSONS        CLEAR     41  31  67 N7        30.26R
WICHITA INTL   CLEAR     45  30  55 N8        30.27R
WICHITA JABRA  CLEAR     37  28  70 N8        30.27R
WICHITA MCCONL CLEAR     43  28  54 N10       30.26R
WINFIELD       CLEAR     42  29  59 N3        30.28R
$$

KSZ007>012-019>026-033>040-048>060-102>105-190600-
NORTHEAST KANSAS

CITY           SKY/WX    TMP DP  RH WIND       PRES   REMARKS
CONCORDIA      CLEAR     34  26  72 W6        30.28R
EMPORIA        CLEAR     36  25  64 N8        30.26S
LAWRENCE       CLEAR     30  24  78 NW3       30.24F
MANHATTAN      CLEAR     34  25  69 W6        30.27S
MARYSVILLE     CLEAR     32  27  80 W5        30.26R
OLATHE IND     PTCLDY    35  26  69 NW6       30.23F
OLATHE EXE     PTCLDY    36  26  67 NW6       30.22S
SALINA         PTCLDY    39  28  64 N6        30.30R
TOPEKA BILLARD CLEAR     37  27  67 W6        30.25F
TOPEKA FORBES  CLEAR     35  26  69 W8        30.25S
$$




USA.gov is the U.S. government's official web portal to all federal, state and local government web resources and services.